COSMOS 1040

导读

COSMOS 1040是独联体(CIS)所属"宇宙"系列卫星,于1978年10月4日08:00发射入轨。"宇宙"系列是苏联/俄罗斯规模最大的卫星家族,涵盖科学研究、航天技术试验与军事侦察等多元任务。作为冷战时期苏联航天工程的产物,该卫星延续了系列平台设计,验证空间技术可行性,为后续航天任务积累关键数据,推动了近地轨道探测技术发展,是苏联航天体系持续拓展的重要见证。

基本信息
目录编号:
11049
目录名称:
COSMOS 1040
国际标识:
1978-091G
轨道中心:
EARTH
卫星名称:
COSMOS 1040
卫星全名:
--
卫星状态:
在轨 (已飞行17423 天)
发射日期:
1978-10-04 UTC
国别 :
俄罗斯(独联体) (CIS)
星等 :
--
轨道信息
数据来源 国际轨道数据
星历时间: 2026-06-17T07:35:01+0800
8小时前
查看轨道信息
半长轴: 7881.007km
偏心率: 0.0030148
轨道倾角: 74.036°
近地点辐角 72.487°
升交点赤经 9.713°
平近点角 358.677°
近地点: 1479.11km
远地点: 1526.63km
周期: 116.047分钟
每日圈数: 12.408812
详细信息
使用方式:
暂无
2D轨道图
3D轨道图
轨道高度分析图
轨道倾角分析图
轨道综合分析图
查看轨道综合分析图